When you browse on this site, cookies collect data to enhance your experience and personalize the content and advertising you see.
Visit our Privacy Policy to learn more. By continuing to use the site, you agree to this use of cookies and data.
  • In Slovakia
  • List of Countries
  • For 7 days
  • Water Temperature
  • Satellite Maps
  • Weather Map
  • Weather Widgets
  • user-avatar
    Login

    Hourly Weather Barisal

    Today, 11 December, Tuesday

    Time Temperature Precipitation Wind Pressure Humidity
    00:00 +21°C° 0 mm 1 mps 759 mmHg 50%
    01:00 +20°C° 0 mm 1 mps 759 mmHg 51%
    02:00 +19°C° 0 mm 2 mps 759 mmHg 52%
    03:00 +19°C° 0 mm 2 mps 759 mmHg 53%
    04:00 +19°C° 0 mm 2 mps 759 mmHg 55%
    05:00 +18°C° 0 mm 2 mps 759 mmHg 57%
    06:00 +18°C° 0 mm 2 mps 759 mmHg 60%
    07:00 +19°C° 0 mm 2 mps 759 mmHg 56%
    08:00 +21°C° 0 mm 2 mps 760 mmHg 52%
    09:00 +24°C° 0 mm 2 mps 760 mmHg 48%
    10:00 +26°C° 0 mm 2 mps 760 mmHg 43%
    11:00 +28°C° 0 mm 2 mps 760 mmHg 38%
    12:00 +29°C° 0 mm 2 mps 759 mmHg 33%
    13:00 +30°C° 0 mm 2 mps 759 mmHg 31%
    14:00 +30°C° 0 mm 2 mps 758 mmHg 30%
    15:00 +30°C° 0 mm 2 mps 758 mmHg 29%
    16:00 +28°C° 0 mm 2 mps 758 mmHg 32%
    17:00 +27°C° 0 mm 1 mps 758 mmHg 36%
    18:00 +25°C° 0 mm 1 mps 758 mmHg 40%
    19:00 +24°C° 0 mm 1 mps 758 mmHg 41%
    20:00 +24°C° 0 mm 1 mps 759 mmHg 42%
    21:00 +23°C° 0 mm 1 mps 759 mmHg 43%
    22:00 +23°C° 0 mm 1 mps 759 mmHg 43%
    23:00 +22°C° 0 mm 1 mps 760 mmHg 44%

    Tomorrow, 12 December, Wednesday

    Time Temperature Precipitation Wind Pressure Humidity
    00:00 +22°C° 0 mm 1 mps 760 mmHg 45%
    01:00 +22°C° 0 mm 1 mps 760 mmHg 46%
    02:00 +22°C° 0 mm 1 mps 759 mmHg 47%
    03:00 +20°C° 0 mm 2 mps 759 mmHg 48%
    04:00 +20°C° 0 mm 2 mps 759 mmHg 50%
    05:00 +20°C° 0 mm 2 mps 759 mmHg 51%
    06:00 +20°C° 0 mm 2 mps 760 mmHg 52%
    07:00 +21°C° 0 mm 2 mps 760 mmHg 49%
    08:00 +24°C° 0 mm 2 mps 761 mmHg 46%
    09:00 +26°C° 0 mm 2 mps 761 mmHg 43%
    10:00 +27°C° 0 mm 2 mps 761 mmHg 40%
    11:00 +29°C° 0 mm 2 mps 761 mmHg 37%
    12:00 +30°C° 0 mm 2 mps 761 mmHg 33%
    13:00 +30°C° 0 mm 3 mps 760 mmHg 33%
    14:00 +31°C° 0 mm 3 mps 759 mmHg 33%
    15:00 +31°C° 0 mm 3 mps 759 mmHg 33%
    16:00 +29°C° 0 mm 2 mps 759 mmHg 36%
    17:00 +27°C° 0 mm 2 mps 759 mmHg 40%
    18:00 +26°C° 0 mm 2 mps 759 mmHg 44%
    19:00 +25°C° 0 mm 2 mps 760 mmHg 45%
    20:00 +24°C° 0 mm 2 mps 760 mmHg 47%
    21:00 +24°C° 0 mm 2 mps 760 mmHg 48%
    22:00 +23°C° 0 mm 2 mps 760 mmHg 49%
    23:00 +23°C° 0 mm 2 mps 760 mmHg 50%

    Day after tomorrow, 13 December, Thursday

    Time Temperature Precipitation Wind Pressure Humidity
    00:00 +21°C° 0 mm 2 mps 760 mmHg 51%
    01:00 +21°C° 0 mm 2 mps 760 mmHg 53%
    02:00 +21°C° 0 mm 2 mps 760 mmHg 54%
    03:00 +20°C° 0 mm 3 mps 760 mmHg 55%
    04:00 +20°C° 0 mm 3 mps 760 mmHg 57%
    05:00 +20°C° 0 mm 3 mps 760 mmHg 58%
    06:00 +19°C° 0 mm 3 mps 760 mmHg 59%
    07:00 +21°C° 0 mm 3 mps 761 mmHg 56%
    08:00 +24°C° 0 mm 3 mps 762 mmHg 52%
    09:00 +25°C° 0 mm 3 mps 762 mmHg 48%
    10:00 +27°C° 0 mm 3 mps 762 mmHg 43%
    11:00 +28°C° 0 mm 3 mps 762 mmHg 38%
    12:00 +30°C° 0 mm 3 mps 761 mmHg 32%
    13:00 +30°C° 0 mm 3 mps 760 mmHg 32%
    14:00 +31°C° 0 mm 3 mps 760 mmHg 31%
    15:00 +31°C° 0 mm 3 mps 759 mmHg 30%
    16:00 +29°C° 0 mm 3 mps 759 mmHg 34%
    17:00 +27°C° 0 mm 2 mps 759 mmHg 37%
    18:00 +25°C° 0 mm 2 mps 759 mmHg 41%
    19:00 +25°C° 0 mm 2 mps 760 mmHg 42%
    20:00 +24°C° 0 mm 2 mps 761 mmHg 43%
    21:00 +23°C° 0 mm 2 mps 761 mmHg 44%
    22:00 +23°C° 0 mm 2 mps 761 mmHg 46%
    23:00 +21°C° 0 mm 2 mps 761 mmHg 47%

    14 December, Friday

    Time Temperature Precipitation Wind Pressure Humidity
    00:00 +21°C° 0 mm 2 mps 761 mmHg 49%
    01:00 +20°C° 0 mm 3 mps 761 mmHg 51%
    02:00 +20°C° 0 mm 3 mps 761 mmHg 53%
    03:00 +20°C° 0 mm 3 mps 760 mmHg 55%
    04:00 +19°C° 0 mm 3 mps 761 mmHg 57%
    05:00 +19°C° 0 mm 3 mps 761 mmHg 60%
    06:00 +19°C° 0 mm 3 mps 761 mmHg 62%
    07:00 +20°C° 0 mm 3 mps 762 mmHg 58%
    08:00 +22°C° 0 mm 3 mps 762 mmHg 55%
    09:00 +24°C° 0 mm 3 mps 763 mmHg 51%
    10:00 +26°C° 0 mm 3 mps 762 mmHg 46%
    11:00 +27°C° 0 mm 3 mps 762 mmHg 41%
    12:00 +28°C° 0 mm 3 mps 762 mmHg 37%
    13:00 +29°C° 0 mm 3 mps 761 mmHg 35%
    14:00 +29°C° 0 mm 3 mps 761 mmHg 34%
    15:00 +29°C° 0 mm 3 mps 760 mmHg 33%
    16:00 +28°C° 0 mm 3 mps 760 mmHg 35%
    17:00 +26°C° 0 mm 2 mps 760 mmHg 38%
    18:00 +25°C° 0 mm 2 mps 761 mmHg 41%
    19:00 +25°C° 0 mm 2 mps 761 mmHg 41%
    20:00 +25°C° 0 mm 2 mps 762 mmHg 42%
    21:00 +24°C° 0 mm 3 mps 762 mmHg 42%
    22:00 +24°C° 0 mm 3 mps 762 mmHg 43%
    23:00 +24°C° 0 mm 3 mps 762 mmHg 44%

    15 December, Saturday

    Time Temperature Precipitation Wind Pressure Humidity
    00:00 +22°C° 0 mm 4 mps 762 mmHg 45%
    01:00 +22°C° 0 mm 4 mps 762 mmHg 45%
    02:00 +22°C° 0 mm 4 mps 761 mmHg 44%
    03:00 +21°C° 0 mm 4 mps 761 mmHg 44%
    04:00 +21°C° 0 mm 4 mps 761 mmHg 43%
    05:00 +21°C° 0 mm 4 mps 761 mmHg 42%
    06:00 +21°C° 0 mm 4 mps 762 mmHg 41%
    07:00 +21°C° 0 mm 4 mps 762 mmHg 43%
    08:00 +21°C° 0 mm 4 mps 763 mmHg 45%
    09:00 +21°C° 0 mm 3 mps 764 mmHg 46%
    10:00 +22°C° 0 mm 3 mps 763 mmHg 46%
    11:00 +22°C° 0 mm 3 mps 763 mmHg 47%
    12:00 +22°C° 0 mm 3 mps 762 mmHg 47%
    13:00 +22°C° 0 mm 3 mps 762 mmHg 47%
    14:00 +22°C° 0 mm 3 mps 762 mmHg 48%
    15:00 +22°C° 0 mm 3 mps 761 mmHg 48%
    16:00 +23°C° 0 mm 2 mps 762 mmHg 48%
    17:00 +23°C° 0 mm 2 mps 762 mmHg 47%
    18:00 +23°C° 0 mm 2 mps 762 mmHg 47%
    19:00 +23°C° 0 mm 2 mps 763 mmHg 47%
    20:00 +23°C° 0 mm 2 mps 763 mmHg 47%
    21:00 +23°C° 0 mm 2 mps 763 mmHg 47%
    22:00 +23°C° 0 mm 2 mps 763 mmHg 47%
    23:00 +21°C° 0 mm 2 mps 763 mmHg 47%

    16 December, Sunday

    Time Temperature Precipitation Wind Pressure Humidity
    00:00 +21°C° 0 mm 2 mps 763 mmHg 48%
    01:00 +21°C° 0 mm 3 mps 762 mmHg 48%
    02:00 +21°C° 0 mm 3 mps 762 mmHg 48%
    03:00 +22°C° 0 mm 3 mps 762 mmHg 48%
    04:00 +21°C° 0 mm 3 mps 762 mmHg 49%
    05:00 +21°C° 0 mm 3 mps 762 mmHg 50%
    06:00 +21°C° 0 mm 3 mps 762 mmHg 51%
    07:00 +22°C° 0 mm 3 mps 762 mmHg 52%
    08:00 +22°C° 0 mm 3 mps 763 mmHg 54%
    09:00 +22°C° 0 mm 3 mps 763 mmHg 56%
    10:00 +24°C° 0 mm 3 mps 763 mmHg 56%
    11:00 +24°C° 0 mm 3 mps 763 mmHg 56%
    12:00 +25°C° 0 mm 3 mps 762 mmHg 55%
    13:00 +25°C° 0 mm 3 mps 762 mmHg 54%
    14:00 +25°C° 0 mm 3 mps 761 mmHg 53%
    15:00 +25°C° 0 mm 3 mps 761 mmHg 51%
    16:00 +25°C° 0 mm 3 mps 761 mmHg 51%
    17:00 +24°C° 0 mm 3 mps 761 mmHg 50%
    18:00 +23°C° 0 mm 4 mps 761 mmHg 49%
    19:00 +22°C° 0 mm 4 mps 762 mmHg 51%
    20:00 +21°C° 0 mm 3 mps 762 mmHg 54%
    21:00 +21°C° 0 mm 3 mps 762 mmHg 56%
    22:00 +20°C° 0 mm 3 mps 762 mmHg 56%
    23:00 +20°C° 0 mm 4 mps 762 mmHg 57%
    Show more